Regional Weather Roundup
Issued by NWS

Home | Current Version | Previous Version | Graphics & Text | Print | Product List | Glossary On
Versions: 1 2 3 4 5 6 7 8 9 10 11 12 13 14 15 16 17 18 19 20 21 22 23 24 25 26 27 28 29 30 31 32 33 34 35 36 37 38 39 40 41 42 43 44 45 46 47 48 49 50
497
ASUS45 KTFX 222110
RWRMT
MONTANA REGIONAL WEATHER ROUNDUP
NATIONAL WEATHER SERVICE GREAT FALLS MT
200 PM MST WED NOV 22 2017

NOTE: "FAIR" INDICATES FEW OR NO CLOUDS BELOW 12000 FEET WITH NO
SIGNIFICANT WEATHER AND/OR OBSTRUCTIONS TO VISIBILITY.

MTZ001>007-043-222200-
WEST OF THE DIVIDE

CITY           SKY/WX    TMP DP  RH WIND       PRES   REMARKS
KALISPELL      CLOUDY    48  46  93 SW3       30.12F
MISSOULA       CLOUDY    45  42  89 W5        30.22S
BUTTE          CLOUDY    51  36  56 SE6       30.27S
MULLAN PASS    FOG       44  42  93 VRB7G17   30.20S VSB 1/4
ANACONDA         N/A     54  39  58 S13G18    30.24S
DEER LODGE       N/A     46  39  76 W6        30.24R
EUREKA           N/A     54  48  82 MISG      30.09S
HAMILTON         N/A     59  46  63 S9        30.21F
LIBBY            N/A     39  39 100 CALM      30.12S
PLAINS           N/A     48  46  93 CALM      30.16S
RONAN            N/A     54  49  83 SE1       30.19S
$$

MTZ008-052>055-222200-
SOUTHWEST MONTANA

CITY           SKY/WX    TMP DP  RH WIND       PRES   REMARKS
BOZEMAN        FAIR      48  37  65 NE12      30.21R
DILLON         PTSUNNY   54  40  59 SW18      30.26F
W YELLOWSTONE  CLOUDY    41  39  93 SW12G20   30.38S
ENNIS          CLOUDY    55  39  54 S20       30.31F
TWIN BRIDGES     N/A     57  39  51 S6        30.21F
$$

MTZ009-010-012-014-046-048-049-054-222200-
EAST SLOPES AND CENTRAL MONTANA

CITY           SKY/WX    TMP DP  RH WIND       PRES   REMARKS
CUT BANK       FAIR      56  43  61 W18G24    30.00S
GREAT FALLS    FAIR      59  40  49 SW26G39   30.04F
MALMSTROM AFB  FAIR      59  42  52 SW15      30.05S
HELENA         FAIR      64  43  46 W25G32    30.16S
BOWMANS CRNR   PTSUNNY   58  41  53 SW21G30   30.06S
CHOTEAU          N/A     61  39  44 CALM      30.04R
FAIRFIELD      FAIR      61  39  44 W24G32    30.02S
POWER          FAIR      58  40  51 SW16      30.03S
RAYNESFORD     PTSUNNY   60  39  46 W18G37    30.07S
ULM            PTSUNNY   60  42  51 SW28G39   30.05F
$$

MTZ011-013-016-021-045-047-050-051-222200-
NORTH CENTRAL MONTANA

CITY           SKY/WX    TMP DP  RH WIND       PRES   REMARKS
HAVRE          FAIR      58  42  55 W15       29.95F
LEWISTOWN      FAIR      63  40  42 W17       30.06S
N BAR RANCH    FAIR      63  37  39 W18G26    30.07S
CHINOOK          N/A     59  43  55 W14       29.94R
DENTON         PTSUNNY   60  42  50 W28G38    29.98S
GEYSER         FAIR      59  39  48 W23G32    30.03S
GRASS RANGE    FAIR      64  39  39 W30G38    29.99S
STANFORD       FAIR      59  38  46 W33G43    30.05S
WINIFRED       FAIR      60  41  49 W24G31    30.00S
$$

MTZ017>020-022>027-061-062-222200-
NORTHEAST MONTANA

CITY           SKY/WX    TMP DP  RH WIND       PRES   REMARKS
GLASGOW        FAIR      52  37  56 N6        29.93R
GLENDIVE       FAIR      62  41  46 NW15      29.94R
JORDAN           N/A     69  41  36 NW25G31   29.95R
SIDNEY         FAIR      54  37  52 NW15      29.91R
WOLF POINT     FAIR      56  38  50 NW17      29.92R
MALTA          SUNNY     59  41  51 NW9       29.94R
PLENTYWOOD       N/A     37  28  70 NW15G21   29.91R WCI  28
POPLAR           N/A     54  37  54 W7        29.93R
SCOBEY           N/A     44  27  51 NW9       29.91R
$$

MTZ028>42-056>058-222200-
SOUTHCENTRAL AND SOUTHEAST MONTANA

CITY           SKY/WX    TMP DP  RH WIND       PRES   REMARKS
BAKER          FAIR      64  42  44 W20G26    29.95S
BILLINGS       PTSUNNY   60  41  49 SW15      30.07F
LIVINGSTON     FAIR      63  40  42 W23G33    30.18R
MILES CITY     FAIR      67  45  45 W16G24    29.96S
BIG TIMBER     SUNNY     63  37  39 W37       30.13R
EKALAKA          N/A     64  38  38 W21       29.97S
FORSYTH          N/A     64  41  42 W15G21    29.98S
HARLOWTON      PTSUNNY   56  40  54 NW24G31   30.11R
LAUREL           N/A     61  39  44 SW13      30.10S
ROUNDUP          N/A     64  37  36 SW25      29.94S
$$

REGIONAL REPORTS...DAKOTAS

CITY           SKY/WX    TMP DP  RH WIND       PRES   REMARKS
WILLISTON      FAIR      51  32  48 W15       29.90R
MINOT          FAIR      41  26  55 NW21      29.84R
DICKINSON      FAIR      62  38  40 NW24G32   29.86R
BEACH          FAIR      59  37  44 NW22G29   29.96R
CROSBY         FAIR      32  23  69 NW15      29.91R WCI  22
TIOGA          FAIR      43  30  61 NW15G24   29.89R
WATFORD CITY   FAIR      50  34  53 NW18G28   29.88S
BISMARCK       FAIR      56  31  38 VRB3      29.82S
GRAND FORKS    CLOUDY    28  18  66 S16       29.89F WCI  16
FARGO          CLOUDY    30  16  56 S18G28    29.89F WCI  18
BUFFALO SD       N/A     69  39  33 NW36G44   29.88F
RAPID CITY     FAIR      68  37  32 NW22      29.99S
$$

REGIONAL REPORTS...WYOMING/IDAHO/WASHINGTON

CITY           SKY/WX    TMP DP  RH WIND       PRES   REMARKS
GILLETTE       CLOUDY    62  38  40 NW13      30.09F
SHERIDAN       CLOUDY    66  41  40 SW8       30.07F
BUFFALO WY     PTSUNNY   62  35  36 W5        30.12F
CODY           FAIR      58  39  49 W23G33    30.19S
YELLOWSTONE LA   N/A     39  38  96 VRB5      30.42F
IDAHO FALLS    FAIR      51  44  77 CALM      30.39F
SALMON         LGT RAIN  44  41  89 N3        30.35S
BOISE          FAIR      62  51  67 CALM      30.28F
SPOKANE        PTSUNNY   51  50  96 NE5       30.10F
$$

REGIONAL REPORTS...ALBERTA

CITY           SKY/WX    TMP DP  RH WIND       PRES   REMARKS
EDMONTON       MOSUNNY   23  14  68 SE6       29.80F WCI  16
CALGARY        PTSUNNY   52  28  40 SW6       29.81F
LETHBRIDGE     MOSUNNY   59  43  55 W14G24    29.90S
MEDICINE HAT   MOSUNNY   36  28  75 SW5       29.91F
$$

REGIONAL REPORTS...SASKATCHEWAN

CITY           SKY/WX    TMP DP  RH WIND       PRES   REMARKS
SWIFT CURRENT  SUNNY     27  21  80 W7        29.88S WCI  19
REGINA         PTSUNNY   21  18  86 W10       29.92R WCI  10
SASKATOON      PTSUNNY   14   7  73 SW10      29.95S WCI   1
$$




USA.gov is the U.S. government's official web portal to all federal, state and local government web resources and services.